FREGAT DEB, 45831

Orbit data source: Space-Track

FREGAT DEB, 45831 is space debris in LEO originally from a launch on Mon, 18 Jul 2011 UTC launched from the Tyuratam Missile And Space Complex (TTMTR). Debris objects in space refer to the collection of defunct objects orbiting the Earth. Examples of debris include non-operational satellites, rocket bodies, and fragments generated from explosions, collisions, or faulty payload assembly.

Loading next visibility...
FREGAT DEB details
Identifier
45831, 2011-037BR
Orbit
LEO
Last TLE update1 day ago
Origin
Flag of CISVVKO VKS (CIS)
ManufacturerLavochkin
MissionSpacecraft
Bus & MotorUnknown
MassUnknown
Launch date (UTC)
2011-07-18 (13 years ago)
Launch vehicleUnknown
Launch site
Tyuratam Missile And Space Complex (TTMTR)
Object type
Payload
Rocket body
Debris
Shape & HBRUnknown
Radar Cross SectionSmall (<0.1 m²)

Expand to show TLE details & history

TLE from 1 day ago
0 FREGAT DEB
1 45831U 11037BR  24339.43447639  .00002702  00000-0  14750-2 0  9994
2 45831  51.4349  74.4560 1652690  26.0756 341.4598 11.50859271189281
Epoch: 2024-12-04T10:25Z
Definitive object data (Epoch: 2024-12-04T10:25:38.76Z)
Latitude-0°
Longitude-155.68518°
Altitude640.314 km
Speed8.095 km/s
True Right ascension04h 57m 49s
True Declination0° 00' 00"
Sunlit
Object was in full shadow at TLE epoch
Visualization TLE readout
Latitude-9.57535°
Longitude29.39104°
Altitude3,207.957 km
Speed5.924 km/s
Apparent Right ascension18h 19m 20s
Apparent Declination-22° 59' 43"
Sunlit
Object is in daylight
Visualization observer readout
Local Sidereal Time08:21:49
Azimuth66.006° ENE
Elevation-59.122°
Doppler factor1
Orbital elements
Apogee altitude3,278.759 km
Perigee altitude539.502 km
Semi-major axis8,287.268 km
Eccentricity0.165269
Inclination51.4349°
RAAN74.456°
Arg. of periapsis26.0756°
True anomaly334.01084°
Mean anomaly341.4598°
Eccentric anomaly337.89675°
Mean motion2.87691 °/min
BSTAR0.001475
Orbital period125.13 mins
Loading maneuver chart data...
Loading historical data...
Loading historical data...
Loading historical data...
Loading historical data...
Loading historical data...
Loading historical data...
Loading historical data...

FREGAT DEB Visibility forecast

Observer location: undefined°, undefined

Span
Click to sort rows by Start time (UTC) header in descending order
Start Az.
Max El. time (UTC)
Max El. Az.
Max El.
End time (UTC)
End Az.
10 mins2024-12-05 11:42:26.382Z293.01° NW2024-12-05 11:46:26.382Z351.488° N27.475°2024-12-05 11:52:26.382Z52.869° ENE
15 mins2024-12-05 13:54:26.382Z318.557° NNW2024-12-05 13:59:26.382Z25.542° NE34.565°2024-12-05 14:09:26.382Z90.336° ESE
22 mins2024-12-05 16:04:26.382Z304.835° NW2024-12-05 16:11:26.382Z213.778° SW44.816°2024-12-05 16:26:26.382Z134.554° SE
21 mins2024-12-05 18:15:26.382Z282.861° WNW2024-12-05 18:23:26.382Z232.391° WSW27.124°2024-12-05 18:36:26.382Z180.283° SSW
5 mins2024-12-06 08:27:26.382Z179.309° S2024-12-06 08:29:26.382Z123.798° SE29.157°2024-12-06 08:32:26.382Z71.554° E
|